Simultaneous Nadir Overpasses (SNOs) Predictions

Prediction of SNOs between METOP-C and METOP-A Satellite Orbit:

Table of predicted SNOs for the next 14.0 days since TLE Epoch: 11/19/2021
Index Date (METOP-C) Time (METOP-C) Lat,Lon (METOP-C) SZA (METOP-C ) Date (METOP-A) Time (METOP-A) Lat,Lon (METOP-A) SZA (METOP-A ) Distance(km) Time Diff (sec)
1 11/26/2021 02:33:21 81.22,-174.66 104.80 11/26/2021 02:34:23 81.23,-174.52 104.85 2.56 62
2 11/26/2021 03:24:01 -81.23, -6.97 75.15 11/26/2021 03:24:50 -81.22, -6.93 75.13 1.13 49
3 11/26/2021 04:14:42 81.23, 160.23 104.84 11/26/2021 04:15:12 81.23, 160.25 104.86 0.59 30
4 11/26/2021 05:05:22 -81.23, -32.08 75.11 11/26/2021 05:05:39 -81.22, -32.18 75.12 2.09 17
5 11/26/2021 05:56:03 81.23, 135.13 104.88 11/26/2021 05:56:01 81.23, 135.02 104.87 1.82 2
6 11/26/2021 06:46:44 -81.23, -57.57 75.12 11/26/2021 06:46:28 -81.22, -57.42 75.12 2.61 16
7 11/26/2021 07:37:25 81.23, 109.63 104.88 11/26/2021 07:36:50 81.23, 109.79 104.88 2.70 35
8 11/26/2021 08:28:05 -81.24, -82.68 75.08 11/26/2021 08:27:17 -81.23, -82.67 75.11 1.06 48



Historial Predications of SNOs between METOP-C and METOP-A
